This is the latest recevied weather packets stored in our database for station/object W9WRP. If no packets are shown the sender has not sent any weather packets the latest 10 day(s).
| Time | Temp. | Humidity | Pressure | Rain* | Wind** | Luminosity | Snow |
|---|---|---|---|---|---|---|---|
| 1787883106 | 38.33° C | 21% | 1011.1 hPa | 0 mm | - | 1 W/m² | - |
| 1787882802 | 38.89° C | 20% | 1011.1 hPa | 0 mm | - | 1 W/m² | - |
| 1787882499 | 39.44° C | 19% | 1010.8 hPa | 0 mm | - | 2 W/m² | - |
| 1787882195 | 39.44° C | 19% | 1011 hPa | 0 mm | - | 3 W/m² | - |
| 1787881894 | 40° C | 19% | 1011.1 hPa | 0 mm | - | 5 W/m² | - |
| 1787881590 | 40° C | 19% | 1011 hPa | 0 mm | - | 7 W/m² | - |
| 1787881286 | 40° C | 19% | 1011.1 hPa | 0 mm | - | 9 W/m² | - |
| 1787880981 | 40° C | 19% | 1010.7 hPa | 0 mm | - | 11 W/m² | - |
| 1787880681 | 40.56° C | 18% | 1011 hPa | 0 mm | - | 13 W/m² | - |
| 1787880379 | 40.56° C | 18% | 1011.1 hPa | 0 mm | - | 16 W/m² | - |
| 1787880074 | 40.56° C | 18% | 1011.1 hPa | 0 mm | - | 20 W/m² | - |
| 1787879769 | 41.11° C | 18% | 1011.2 hPa | 0 mm | - | 27 W/m² | - |
| 1787879463 | 41.11° C | 18% | 1011.1 hPa | 0 mm | - | 40 W/m² | - |
| 1787879159 | 41.11° C | 18% | 1011.2 hPa | 0 mm | - | 41 W/m² | - |
| 1787878855 | 41.11° C | 18% | 1011 hPa | 0 mm | - | 47 W/m² | - |
| 1787878549 | 41.11° C | 18% | 1011.1 hPa | 0 mm | - | 53 W/m² | - |
| 1787878244 | 41.11° C | 18% | 1011.1 hPa | 0 mm | - | 58 W/m² | - |
| 1787877940 | 41.11° C | 18% | 1011.2 hPa | 0 mm | - | 61 W/m² | - |
| 1787877635 | 41.67° C | 18% | 1011.2 hPa | 0 mm | - | 64 W/m² | - |
| 1787877331 | 41.67° C | 18% | 1011.5 hPa | 0 mm | - | 66 W/m² | - |
| 1787877026 | 41.67° C | 18% | 1011.1 hPa | 0 mm | - | 70 W/m² | - |
| 1787876721 | 41.67° C | 18% | 1011.1 hPa | 0 mm | - | 75 W/m² | - |
| 1787876416 | 41.67° C | 18% | 1011.1 hPa | 0 mm | - | 82 W/m² | - |
| 1787876115 | 41.67° C | 18% | 1011.2 hPa | 0 mm | - | 88 W/m² | - |
| 1787875810 | 41.67° C | 18% | 1011 hPa | 0 mm | - | 94 W/m² | - |
* Rain latest hour (hover to see other rain measurements)
** Current wind speed in m/s (hover to see current wind gust speed)